Overview Statistics Trail Chart Weather Telemetry Raw packets
 

This is the latest recevied weather packets stored in our database for station/object DM8MH-13. If no packets are shown the sender has not sent any weather packets the latest 10 day(s).

<< 42 43 44 45 46 47 48 >>
Time Temp. Humidity Pressure Rain* Wind** Luminosity Snow
1787931074 24.44° C 73% 1008 hPa 0 mm - 165 W/m² -
1787930473 24.44° C 72% 1008 hPa 0 mm - 127 W/m² -
1787929872 24.44° C 72% 1008.1 hPa 0 mm - 103 W/m² -
1787929273 24.44° C 71% 1008.4 hPa 0 mm - 102 W/m² -
1787928673 24.44° C 71% 1008.4 hPa 0 mm - 133 W/m² -
1787928072 25° C 72% 1008.4 hPa 0 mm - 178 W/m² -
1787927474 24.44° C 71% 1008.5 hPa 0 mm - 226 W/m² -
1787926873 24.44° C 72% 1008.4 hPa 0 mm - 277 W/m² -
1787926272 24.44° C 73% 1008.5 hPa 0 mm - 220 W/m² -
1787925672 24.44° C 75% 1008.8 hPa 0 mm - 243 W/m² -
1787925073 23.89° C 76% 1009.1 hPa 0 mm - 306 W/m² -
1787924473 23.89° C 77% 1009.2 hPa 0 mm - 307 W/m² -
1787923873 23.33° C 76% 1009 hPa 0 mm - 243 W/m² -
1787923273 23.33° C 79% 1009.1 hPa 0.25 mm - 275 W/m² -
1787922673 23.33° C 80% 1009 hPa 0.51 mm - 294 W/m² -
1787922072 23.33° C 82% 1009 hPa 0.51 mm - 533 W/m² -
1787921473 22.78° C 79% 1009 hPa 0.76 mm - 282 W/m² -
1787920873 22.22° C 81% 1008.9 hPa 0.76 mm - 235 W/m² -
1787920273 22.22° C 83% 1008.9 hPa 1.02 mm - 190 W/m² -
1787919673 22.22° C 83% 1009 hPa 0.76 mm - 58 W/m² -
1787919073 22.78° C 81% 1008.8 hPa 0.51 mm - 40 W/m² -
1787918473 23.33° C 79% 1009.5 hPa 0.51 mm - 55 W/m² -
1787917873 23.89° C 77% 1009.5 hPa 0.25 mm - 49 W/m² -
1787917273 25° C 73% 1010 hPa 0.25 mm - 53 W/m² -
1787916673 25.56° C 71% 1010 hPa 0 mm - 57 W/m² -

* Rain latest hour (hover to see other rain measurements)
** Current wind speed in m/s (hover to see current wind gust speed)